Weather History for KOLE - September, 2013

Change the Weather History Date:

Monday, September 16, 2013

  Actual Average (KBFD) Record (KBFD)
Temperature  
Mean Temperature 46 °F 57 °F  
Max Temperature 55 °F 68 °F 86 °F (1991)
Min Temperature 37 °F 45 °F 27 °F (1959)
Degree Days  
Heating Degree Days 19 5  
Month to date heating degree days 47  
Since 1 July heating degree days 200  
Cooling Degree Days 0 0  
Month to date cooling degree days 13  
Year to date cooling degree days 190  
Moisture  
Dew Point 46 °F    
Average Humidity 95    
Maximum Humidity 100    
Minimum Humidity 77    
Precipitation  
Precipitation 0.00 in 0.13 in 1.01 in (1983)
Month to date precipitation 2.08  
Year to date precipitation 32.03  
Sea Level Pressure  
Sea Level Pressure 30.20 in    
Wind  
Wind Speed 3 mph (North)    
Max Wind Speed 9 mph    
Max Gust Speed -    
Visibility 9 miles    
Events Rain    
T = Trace of Precipitation, MM = Missing Value Source: NWS Daily Summary

Daily Weather History Graph

Daily Weather History Graph

Search for Another Location

Airport or City:

Trip Planner

Search our weather history database for the weather conditions in past years. The results will help you decide how hot, cold, wet, or windy it might be!

Date:

Astronomy

Sep. 16, 2013 Rise Set
Actual Time 6:54 AM EDT 7:20 PM EDT
Civil Twilight 6:26 AM EDT 7:48 PM EDT
Nautical Twilight 5:53 AM EDT 8:22 PM EDT
Astronomical Twilight 5:19 AM EDT 8:55 PM EDT
Moon 5:30 PM EDT (9/16) 3:35 AM EDT (9/16)
Length of Visible Light 13h 22m
Length of Day
12h 26m
Waxing Gibbous, 90% of the Moon is Illuminated
Sep 16
Waxing Gibbous
Sep 19
Full
Sep 26
Last Quarter
Oct 4
New
Oct 11
First Quarter

Hourly Weather History & Observations

Time (EDT) Temp. Windchill Dew Point Humidity Pressure Visibility Wind Dir Wind Speed Gust Speed Precip Events Conditions
12:15 AM 50.0 °F - 46.4 °F 87% 30.12 in 10.0 mi North 4.6 mph - N/A Rain Light Rain
12:35 AM 48.2 °F - 46.4 °F 93% 30.11 in 10.0 mi NE 4.6 mph - N/A   Drizzle
12:55 AM 46.4 °F 44.3 °F 46.4 °F 100% 30.11 in 10.0 mi ENE 4.6 mph - N/A Rain Light Rain
1:15 AM 46.4 °F - 46.4 °F 100% 30.11 in 10.0 mi Calm Calm - N/A Rain Light Rain
1:35 AM 46.4 °F - 46.4 °F 100% 30.11 in 10.0 mi Calm Calm - N/A   Drizzle
1:55 AM 46.4 °F - 46.4 °F 100% 30.11 in 10.0 mi Calm Calm - N/A   Light Drizzle
2:15 AM 46.4 °F - 46.4 °F 100% 30.11 in 10.0 mi Calm Calm - N/A   Light Drizzle
2:35 AM 46.4 °F - 46.4 °F 100% 30.10 in 10.0 mi Calm Calm - N/A   Overcast
2:55 AM 46.4 °F - 46.4 °F 100% 30.10 in 10.0 mi Calm Calm - N/A   Overcast
3:15 AM 46.4 °F - 46.4 °F 100% 30.10 in 10.0 mi Calm Calm - N/A   Overcast
3:35 AM 46.4 °F - 46.4 °F 100% 30.09 in 10.0 mi Calm Calm - N/A   Overcast
3:55 AM 46.4 °F - 46.4 °F 100% 30.10 in 10.0 mi Calm Calm - N/A   Overcast
4:15 AM 46.4 °F - 46.4 °F 100% 30.10 in 10.0 mi Calm Calm - N/A   Mostly Cloudy
4:35 AM 44.6 °F - 44.6 °F 100% 30.10 in 7.0 mi Calm Calm - N/A   Scattered Clouds
4:55 AM 44.6 °F - 44.6 °F 100% 30.10 in 10.0 mi Calm Calm - N/A   Mostly Cloudy
5:15 AM 46.4 °F - 46.4 °F 100% 30.11 in 10.0 mi Calm Calm - N/A   Overcast
5:35 AM 46.4 °F - 46.4 °F 100% 30.11 in 10.0 mi Calm Calm - N/A   Mostly Cloudy
5:55 AM 46.4 °F - 46.4 °F 100% 30.11 in 10.0 mi Calm Calm - N/A   Mostly Cloudy
6:15 AM 46.4 °F - 46.4 °F 100% 30.12 in 10.0 mi Calm Calm - N/A   Mostly Cloudy
6:35 AM 46.4 °F - 46.4 °F 100% 30.12 in 10.0 mi Calm Calm - N/A   Overcast
6:55 AM 46.4 °F - 46.4 °F 100% 30.13 in 10.0 mi Calm Calm - N/A   Overcast
7:15 AM 46.4 °F - 46.4 °F 100% 30.14 in 10.0 mi Calm Calm - N/A   Overcast
7:35 AM 46.4 °F - 46.4 °F 100% 30.14 in 10.0 mi Calm Calm - N/A   Overcast
7:55 AM 46.4 °F - 46.4 °F 100% 30.14 in 10.0 mi Calm Calm - N/A   Overcast
8:15 AM 48.2 °F - 48.2 °F 100% 30.15 in 10.0 mi Calm Calm - N/A   Mostly Cloudy
8:35 AM 50.0 °F - 48.2 °F 94% 30.15 in 10.0 mi Calm Calm - N/A   Overcast
8:55 AM 50.0 °F - 48.2 °F 94% 30.15 in 10.0 mi NW 3.5 mph - N/A   Overcast
9:15 AM 51.8 °F - 50.0 °F 94% 30.16 in 10.0 mi NW 3.5 mph - N/A   Overcast
9:35 AM 51.8 °F - 50.0 °F 94% 30.17 in 10.0 mi WNW 3.5 mph - N/A   Overcast
9:55 AM 53.6 °F - 50.0 °F 88% 30.18 in 10.0 mi NNW 6.9 mph - N/A   Overcast
10:15 AM 53.6 °F - 50.0 °F 88% 30.18 in 10.0 mi North 9.2 mph - N/A   Overcast
10:35 AM 53.6 °F - 48.2 °F 82% 30.18 in 10.0 mi NNW 5.8 mph - N/A   Mostly Cloudy
10:55 AM 53.6 °F - 46.4 °F 77% 30.19 in 10.0 mi NW 3.5 mph - N/A   Overcast
11:15 AM 53.6 °F - 48.2 °F 82% 30.19 in 10.0 mi NNW 4.6 mph - N/A   Overcast
11:35 AM 53.6 °F - 48.2 °F 82% 30.19 in 10.0 mi NW 6.9 mph - N/A   Overcast
11:55 AM 53.6 °F - 48.2 °F 82% 30.20 in 10.0 mi North 5.8 mph - N/A   Overcast
12:15 PM 53.6 °F - 48.2 °F 82% 30.20 in 10.0 mi NNW 4.6 mph - N/A   Overcast
12:35 PM 53.6 °F - 50.0 °F 88% 30.20 in 10.0 mi Calm Calm - N/A   Overcast
12:55 PM 55.4 °F - 50.0 °F 82% 30.20 in 10.0 mi NNW 6.9 mph - N/A   Overcast
1:15 PM 53.6 °F - 50.0 °F 88% 30.20 in 10.0 mi NNW 5.8 mph - N/A   Overcast
1:35 PM 55.4 °F - 50.0 °F 82% 30.21 in 10.0 mi North 8.1 mph - N/A   Overcast
1:55 PM 53.6 °F - 50.0 °F 88% 30.21 in 10.0 mi NNW 6.9 mph - N/A   Overcast
2:15 PM 53.6 °F - 50.0 °F 88% 30.21 in 10.0 mi North 8.1 mph - N/A   Overcast
2:35 PM 51.8 °F - 50.0 °F 94% 30.22 in 10.0 mi North 8.1 mph - N/A   Overcast
2:55 PM 51.8 °F - 50.0 °F 94% 30.23 in 7.0 mi North 8.1 mph - N/A   Overcast
3:15 PM 50.0 °F - 48.2 °F 94% 30.24 in 4.0 mi North 5.8 mph - N/A   Overcast
3:35 PM 50.0 °F - 50.0 °F 100% 30.24 in 7.0 mi North 4.6 mph - N/A   Overcast
3:55 PM 50.0 °F - 48.2 °F 94% 30.24 in 10.0 mi North 8.1 mph - N/A   Overcast
4:15 PM 50.0 °F - 48.2 °F 94% 30.24 in 5.0 mi North 4.6 mph - N/A   Overcast
4:35 PM 50.0 °F - 46.4 °F 87% 30.25 in 10.0 mi NNW 5.8 mph - N/A   Overcast
4:55 PM 50.0 °F - 46.4 °F 87% 30.25 in 10.0 mi North 4.6 mph - N/A   Overcast
5:15 PM 48.2 °F - 46.4 °F 93% 30.25 in 3.0 mi NNE 4.6 mph - N/A Rain Rain
5:35 PM 46.4 °F 42.9 °F 46.4 °F 100% 30.26 in 2.0 mi NE 6.9 mph - N/A Rain Rain
5:55 PM 46.4 °F 43.5 °F 46.4 °F 100% 30.26 in 2.5 mi NNE 5.8 mph - N/A   Drizzle
6:15 PM 46.4 °F 43.5 °F 44.6 °F 93% 30.27 in 4.0 mi NNE 5.8 mph - N/A   Drizzle
6:35 PM 46.4 °F 44.3 °F 46.4 °F 100% 30.28 in 10.0 mi NNE 4.6 mph - N/A   Overcast
6:55 PM 44.6 °F 42.2 °F 44.6 °F 100% 30.28 in 3.0 mi NNE 4.6 mph - N/A Rain Rain
7:15 PM 44.6 °F 42.2 °F 44.6 °F 100% 30.29 in 7.0 mi NNE 4.6 mph - N/A   Overcast
7:35 PM 44.6 °F 42.2 °F 44.6 °F 100% 30.29 in 10.0 mi North 4.6 mph - N/A   Overcast
7:55 PM 44.6 °F 42.2 °F 44.6 °F 100% 30.29 in 10.0 mi North 4.6 mph - N/A   Overcast
8:15 PM 44.6 °F 43.1 °F 42.8 °F 93% 30.30 in 10.0 mi NNE 3.5 mph - N/A   Overcast
8:35 PM 42.8 °F 41.1 °F 42.8 °F 100% 30.32 in 10.0 mi NNE 3.5 mph - N/A   Overcast
8:55 PM 42.8 °F 40.1 °F 41.0 °F 93% 30.33 in 10.0 mi NNE 4.6 mph - N/A   Overcast
9:15 PM 42.8 °F 41.1 °F 41.0 °F 93% 30.34 in 10.0 mi North 3.5 mph - N/A   Overcast
9:35 PM 41.0 °F 39.0 °F 41.0 °F 100% 30.34 in 10.0 mi NNE 3.5 mph - N/A   Overcast
9:55 PM 41.0 °F - 39.2 °F 93% 30.34 in 10.0 mi Calm Calm - N/A   Mostly Cloudy
10:15 PM 39.2 °F - 39.2 °F 100% 30.34 in 10.0 mi Calm Calm - N/A   Clear
10:35 PM 37.4 °F - 37.4 °F 100% 30.35 in 10.0 mi Calm Calm - N/A   Clear
10:55 PM 37.4 °F - 37.4 °F 100% 30.35 in 7.0 mi Calm Calm - N/A   Clear
11:15 PM 37.4 °F - 37.4 °F 100% 30.35 in 10.0 mi Calm Calm - N/A   Scattered Clouds
11:35 PM 37.4 °F 34.9 °F 37.4 °F 100% 30.35 in 10.0 mi East 3.5 mph - N/A   Clear
11:55 PM 37.4 °F 34.9 °F 37.4 °F 100% 30.35 in 10.0 mi East 3.5 mph - N/A   Clear